GEFSGL_con_cape1000_162.txt.gz
Probability
16 13 13 19 16 16 16 10 10 10 10 6 6 3 0 0 0 0 0 0 0 0 0 0 0 0 0 0 0 0 0 3 0 0 0 3 3 0 0 0 0 0 0
10 13 13 16 13 16 6 13 13 13 10 0 3 6 0 0 0 0 0 0 0 0 0 0 0 0 0 0 0 0 0 3 0 0 0 0 3 3 3 0 0 0 0
0 6 10 10 10 10 3 10 10 10 0 0 0 3 0 0 0 0 0 0 0 0 0 0 0 0 0 0 0 0 0 0 0 0 0 0 0 0 0 0 0 0 0
10 6 6 10 10 10 3 10 10 6 0 0 0 0 0 0 0 0 0 0 0 0 0 0 0 0 0 3 0 0 0 0 0 0 0 0 0 0 0 3 0 0 0
13 6 13 13 10 10 10 6 6 6 3 3 3 0 0 0 0 0 0 0 0 3 3 3 3 0 0 0 0 0 0 0 3 0 0 0 0 0 0 0 0 0 0
23 13 16 16 16 10 6 6 6 6 6 6 6 3 0 0 0 0 0 0 3 3 3 6 6 3 0 0 0 0 0 0 0 0 0 0 3 0 0 0 0 0 0
26 26 23 16 16 13 6 10 6 6 6 6 6 3 3 0 0 0 0 0 0 3 6 6 3 3 0 0 0 0 0 0 0 0 0 0 3 3 3 0 0 0 0
32 29 26 19 16 13 13 13 13 6 6 10 10 10 10 3 0 0 0 0 0 3 3 6 6 6 3 3 3 0 0 0 0 0 0 0 0 3 3 0 0 0 0
32 26 26 23 23 26 16 19 16 16 13 10 10 10 10 6 0 0 0 0 3 3 0 3 3 3 0 0 0 0 3 3 0 0 0 0 0 0 0 0 0 0 0
42 39 32 39 35 35 39 26 23 19 16 10 10 10 10 10 0 0 0 0 0 0 3 3 0 0 0 0 0 0 3 0 0 0 0 0 0 0 0 0 0 0 0
48 45 42 48 48 39 42 35 23 19 13 6 6 10 6 3 3 0 0 0 0 3 3 3 3 0 0 0 0 0 0 0 0 0 0 0 0 0 0 0 0 0 0
52 48 52 48 39 26 45 42 26 16 13 16 19 16 10 10 3 3 0 0 0 3 3 6 6 0 0 0 0 0 0 0 0 0 0 0 0 0 0 0 3 3 13
61 55 55 52 42 35 39 35 26 23 6 10 10 6 10 13 3 0 0 0 0 0 0 0 0 0 0 0 0 0 0 0 0 0 0 0 0 0 0 3 6 16 10
71 65 55 48 42 39 42 32 13 13 10 6 6 3 6 13 16 10 3 0 0 0 0 0 0 0 0 0 0 0 0 0 0 0 0 0 0 0 0 0 3 6 6
71 68 52 45 45 39 35 35 19 29 19 16 13 13 10 6 0 0 3 10 6 3 3 10 10 3 0 0 3 3 3 0 0 0 0 0 0 0 0 3 0 0 0
71 61 52 39 35 29 29 16 0 0 0 0 0 0 0 0 0 0 0 0 0 0 0 0 6 3 6 3 3 10 6 6 6 0 0 0 0 0 0 3 6 10 6
65 55 48 39 39 32 29 23 10 0 0 0 0 0 0 0 0 0 0 0 0 0 0 0 6 3 3 3 6 3 10 10 13 3 3 3 3 0 0 3 3 0 0
45 26 35 39 29 23 23 19 13 6 3 0 0 0 0 0 0 0 0 0 0 0 0 0 3 3 6 6 3 3 3 6 10 3 3 3 3 0 0 0 0 0 0
29 23 23 26 26 23 10 16 10 10 10 3 6 0 0 0 0 0 0 0 0 0 0 3 6 10 3 6 6 6 6 0 3 3 6 3 3 3 0 0 0 0 0
29 13 19 23 23 23 16 10 13 13 13 10 0 0 0 0 0 0 0 0 0 0 0 0 0 3 3 3 3 3 3 3 3 3 3 3 0 0 0 0 0 0 0
19 10 3 10 16 19 13 10 10 13 6 6 0 0 0 0 0 0 0 0 0 0 0 0 0 0 0 0 0 0 0 0 3 3 3 0 0 0 0 0 0 0 0
19 10 10 16 19 16 13 13 10 3 3 0 0 0 0 0 0 0 0 0 0 0 0 0 0 0 0 0 0 0 0 0 0 0 0 0 0 0 0 0 0 0 0
13 16 13 6 3 0 6 6 3 0 0 0 0 0 0 0 0 0 0 0 0 0 0 0 0 0 0 0 0 0 0 0 0 0 0 0 0 0 0 0 0 0 0
3 3 3 3 3 3 0 0 0 0 0 0 0 0 0 0 0 0 0 0 0 0 0 0 0 0 0 0 0 0 0 0 0 0 0 0 0 0 0 0 0 0 0
0 3 3 3 3 3 3 3 3 0 0 0 0 0 0 0 0 0 0 0 0 0 0 0 0 0 0 0 0 0 0 0 0 0 0 0 0 0 0 0 0 0 0
0 0 3 3 3 3 3 3 3 3 0 0 0 0 0 0 0 0 0 0 0 0 0 0 0 0 0 0 0 0 0 0 0 0 0 0 0 0 0 0 0 0 0

GEFSGL_con_cape1000_168.txt.gz
Probability
71 61 61 61 58 61 45 35 39 29 23 16 16 16 16 16 13 13 10 3 3 6 3 3 3 3 3 3 3 3 6 6 3 3 10 6 3 0 0 3 0 0 0
68 68 58 58 52 52 39 32 35 35 23 19 19 16 16 13 16 6 6 3 0 0 0 0 0 0 0 6 6 6 10 6 6 6 6 10 6 10 10 10 0 0 0
48 52 55 48 48 52 48 39 39 29 26 19 16 16 10 10 10 13 3 3 3 3 3 6 3 6 6 6 10 6 6 3 10 6 3 6 6 3 10 3 0 3 0
42 42 48 52 45 48 55 48 39 29 26 26 23 6 6 6 10 10 6 3 3 3 3 3 6 6 10 6 6 10 6 6 6 3 0 0 10 3 6 0 0 3 0
42 42 55 58 55 52 48 45 35 32 23 23 19 13 6 6 3 3 6 3 3 3 3 3 6 6 3 3 3 6 10 10 3 0 0 0 0 0 0 0 0 0 0
52 55 52 55 42 48 48 39 42 35 26 23 19 16 6 3 0 0 3 3 3 3 3 3 6 6 6 0 0 0 0 0 0 0 0 0 0 0 0 0 0 0 0
58 55 58 52 45 42 35 42 48 48 42 32 23 16 13 6 3 0 0 3 3 6 10 6 6 3 0 6 3 0 0 0 0 0 0 0 0 0 0 0 0 0 0
58 48 61 55 39 45 52 52 55 52 45 45 39 23 19 3 3 0 0 0 0 0 13 13 13 6 6 6 6 3 6 6 0 0 0 0 0 0 3 0 0 0 0
42 55 55 55 52 48 45 55 48 48 45 45 45 35 29 10 3 0 0 0 0 6 10 6 10 13 0 0 0 0 6 13 0 0 0 0 0 0 0 0 0 0 0
48 55 61 68 65 61 61 65 58 48 45 42 42 39 39 29 3 0 0 0 3 10 13 6 3 0 0 0 0 3 6 6 6 0 0 0 0 0 0 0 0 0 0
55 58 74 68 71 61 71 74 68 58 45 45 48 45 45 35 3 0 0 0 0 6 6 13 6 0 0 0 0 3 3 3 3 3 3 0 3 3 0 0 0 0 0
68 65 68 71 55 55 81 77 77 58 55 55 58 55 42 35 3 3 0 0 0 0 0 3 3 0 0 0 0 0 0 0 0 0 0 0 0 0 6 3 0 0 0
65 71 71 68 77 68 74 71 61 68 48 42 45 39 42 42 19 3 0 0 0 0 0 0 0 0 0 0 0 0 0 0 0 0 0 0 0 0 6 10 13 6 0
74 71 74 74 71 74 71 65 58 55 42 39 39 39 39 42 32 10 3 0 0 0 0 0 0 0 0 0 0 0 0 0 0 0 0 0 0 0 6 3 6 3 0
71 71 71 74 71 71 68 52 61 42 45 45 52 45 26 26 3 0 3 6 3 0 0 0 3 3 3 0 0 3 3 0 0 0 0 0 0 0 3 3 3 3 0
68 71 71 65 71 68 48 42 16 13 6 0 0 0 6 0 0 0 0 0 0 0 0 6 0 0 3 3 10 3 0 3 3 0 0 0 0 0 0 0 0 0 0
68 68 65 58 58 61 48 39 29 3 0 0 0 0 0 0 0 0 0 0 0 0 0 0 0 3 3 3 6 0 0 3 3 0 0 0 0 0 0 0 0 0 0
58 48 52 61 52 52 48 39 32 29 16 3 0 0 0 0 0 0 0 0 0 0 0 0 0 3 6 3 0 0 0 0 3 3 3 0 0 0 0 0 0 0 0
42 39 39 35 35 32 26 23 23 23 26 16 6 0 0 0 0 0 0 0 0 0 0 0 0 0 3 3 3 0 0 0 0 0 0 0 0 0 0 0 0 0 0
39 19 23 39 29 26 26 23 23 23 19 13 10 0 0 0 0 0 0 0 0 3 3 0 0 0 0 3 0 0 0 0 0 0 0 0 0 0 0 0 0 0 0
26 23 10 19 26 19 23 26 23 19 19 16 13 3 0 3 3 0 0 0 0 0 0 0 0 0 0 0 0 0 0 0 0 0 0 0 0 0 0 0 0 0 0
16 19 29 23 23 19 19 23 26 16 10 6 10 3 0 0 0 0 0 0 0 0 0 0 3 0 0 0 0 0 0 0 0 0 0 0 0 0 0 0 0 0 0
16 16 19 23 23 3 10 6 10 3 0 0 0 0 0 0 3 0 0 0 0 0 0 3 3 0 0 0 0 0 0 0 0 0 0 0 0 0 0 0 0 0 0
13 13 10 6 10 10 3 3 3 3 3 0 0 0 0 0 0 0 0 0 0 0 0 0 3 0 0 0 0 0 0 0 0 0 0 0 0 0 0 0 0 0 0
6 6 6 10 10 6 3 3 3 3 0 0 0 0 0 0 0 0 0 0 0 3 3 3 0 0 0 0 0 0 0 0 0 0 0 0 0 0 0 0 0 0 0
0 0 0 0 0 3 3 3 6 3 0 3 3 0 0 0 0 0 0 0 0 3 0 0 0 0 0 0 0 0 0 0 0 0 0 0 0 0 0 0 0 0 0

GEFSGL_con_cape1000_174.txt.gz
Probability
19 13 13 3 3 3 3 0 0 0 0 0 0 0 0 0 0 0 0 0 0 0 0 0 0 0 0 0 0 0 0 0 0 0 0 0 0 0 0 0 0 0 0
16 13 13 10 6 3 3 0 0 0 0 0 0 0 0 0 0 0 0 0 0 0 0 0 0 0 0 0 0 0 0 0 0 0 0 0 0 0 0 0 0 0 0
16 16 10 6 6 3 3 0 0 0 0 0 0 0 0 0 0 0 0 0 0 0 0 0 0 0 0 0 0 0 0 0 0 0 0 0 0 0 0 0 0 0 0
13 13 10 6 6 3 3 0 0 0 0 0 0 0 0 0 0 0 0 0 0 0 0 0 0 0 0 0 0 0 0 0 0 0 0 0 0 0 0 0 0 0 0
13 13 10 6 6 3 3 0 0 0 0 0 0 0 0 0 0 0 0 0 0 0 0 0 0 0 0 0 0 0 0 0 0 0 0 0 0 0 0 0 0 0 0
13 13 10 6 0 0 0 0 0 0 0 0 0 0 0 0 0 0 0 0 0 0 0 0 0 0 0 0 0 0 0 0 0 0 0 0 0 0 0 0 0 0 0
13 13 10 0 0 0 0 0 0 0 0 0 0 0 0 0 0 0 0 0 0 0 0 0 0 0 0 0 0 0 0 0 0 0 0 0 0 0 0 0 0 0 0
13 13 6 0 0 0 0 0 0 0 0 0 0 0 0 0 0 0 0 0 0 0 0 0 0 0 0 0 0 0 0 0 0 0 0 0 0 0 0 0 0 0 0
10 10 6 3 0 0 0 0 0 0 0 0 0 0 0 0 0 0 0 0 0 0 0 0 0 0 0 0 0 0 0 0 0 0 0 0 0 0 0 0 0 0 0
3 3 3 3 3 0 0 0 0 0 0 0 0 0 0 0 0 0 0 0 0 0 0 0 0 0 0 0 0 0 0 0 0 0 0 0 0 0 0 0 0 0 0
3 3 0 3 3 3 0 0 0 0 3 0 0 3 0 3 0 0 0 0 0 0 0 0 0 0 0 0 0 0 0 0 0 0 0 0 0 0 0 0 0 0 0
3 3 3 3 3 3 3 3 3 3 3 3 3 3 3 3 0 0 0 0 0 0 0 0 0 0 0 0 0 0 0 0 0 0 0 0 0 0 0 0 0 0 0
10 3 3 3 3 3 6 6 10 6 6 6 6 6 0 0 0 0 0 0 0 0 0 0 0 0 0 0 0 0 0 0 0 0 0 0 0 0 0 0 0 0 0
16 13 10 3 3 3 3 3 6 13 10 10 3 3 3 0 0 0 0 0 0 0 0 0 0 0 0 0 0 0 0 0 0 0 0 0 0 0 0 0 0 0 0
13 13 13 6 6 3 0 0 0 0 3 3 3 3 3 0 0 0 0 0 0 0 0 0 0 0 0 0 0 0 0 0 0 0 0 0 0 0 0 0 0 0 0
10 10 10 13 10 3 3 0 0 0 0 0 0 0 0 0 0 0 0 0 0 0 0 0 0 0 0 0 0 0 0 0 0 0 0 0 0 0 0 0 0 0 0
3 3 6 10 6 10 3 3 3 0 0 0 0 0 0 0 0 0 0 0 0 0 0 0 0 0 0 0 0 0 0 0 0 0 0 0 0 0 0 0 0 0 0
3 3 3 3 3 3 6 6 10 3 0 0 0 0 0 0 0 0 0 0 0 0 0 0 0 0 0 0 0 0 0 0 0 0 0 0 0 0 0 0 0 0 0
3 3 3 3 3 3 6 6 6 0 0 3 0 0 0 0 0 0 0 0 0 0 0 0 0 0 0 0 0 0 0 0 0 0 0 0 0 0 0 0 0 0 0
3 3 3 3 3 3 3 3 3 6 0 0 0 0 0 0 0 0 0 0 0 0 0 0 0 0 0 0 0 0 0 0 0 0 0 0 0 0 0 0 0 0 0
3 3 3 3 3 3 3 3 3 3 0 0 0 0 0 0 0 0 0 0 0 0 0 0 0 0 0 0 0 0 0 0 0 0 0 0 0 0 0 0 0 0 0
0 3 3 3 3 3 3 3 3 3 0 0 0 0 0 0 0 0 0 0 0 0 0 0 0 0 0 0 0 0 0 0 0 0 0 0 0 0 0 0 0 0 0
3 3 0 0 0 0 0 3 0 0 0 0 0 0 0 0 0 0 0 0 0 0 0 0 0 0 0 0 0 0 0 0 0 0 0 0 0 0 0 0 0 0 0
0 0 0 0 0 0 0 0 0 0 0 0 0 0 0 0 0 0 0 0 0 0 0 0 0 0 0 0 0 0 0 0 0 0 0 0 0 0 0 0 0 0 0
0 0 0 0 0 0 0 0 0 0 3 0 0 0 0 0 0 0 0 0 0 0 0 0 0 0 0 0 0 0 0 0 0 0 0 0 0 0 0 0 0 0 0
0 0 0 0 0 0 0 0 0 0 0 3 0 0 0 0 0 0 0 0 0 0 0 0 0 0 0 0 0 0 0 0 0 0 0 0 0 0 0 0 0 0 0

GEFSGL_con_cape1000_180.txt.gz
Probability
10 10 6 6 6 3 3 0 0 0 0 0 0 0 0 0 0 0 0 0 0 0 0 0 0 0 0 0 0 0 0 0 0 0 0 0 0 0 0 0 0 0 0
10 10 10 6 6 3 3 0 0 0 0 0 0 0 0 0 0 0 0 0 0 0 0 0 0 0 0 0 0 0 0 0 0 0 0 0 0 0 0 0 0 0 0
10 10 10 6 6 6 6 3 0 0 0 0 0 0 0 0 0 0 0 0 0 0 0 0 0 0 0 0 0 0 0 0 0 0 0 0 0 0 0 0 0 0 0
13 10 13 6 6 6 6 3 0 0 0 0 0 0 0 0 0 0 0 0 0 0 0 0 0 0 0 0 0 0 0 0 0 0 0 0 0 0 0 0 0 0 0
16 16 13 10 6 6 6 3 3 0 0 0 0 0 0 0 0 0 0 0 0 0 0 0 0 0 0 0 0 0 0 0 0 0 0 0 0 0 0 0 0 0 0
6 6 6 6 3 3 3 3 3 3 0 0 0 0 0 0 0 0 0 0 0 0 0 0 0 0 0 0 0 0 0 0 0 0 0 0 0 0 0 0 0 0 0
3 3 6 6 3 3 3 3 3 3 0 0 0 0 0 0 0 0 0 0 0 0 0 0 0 0 0 0 0 0 0 0 0 0 0 0 0 0 0 0 0 0 0
3 3 6 6 10 3 3 3 3 0 0 0 0 0 0 0 0 0 0 0 0 0 0 0 0 0 0 0 0 0 0 0 0 0 0 0 0 0 0 0 0 0 0
6 6 3 6 6 6 3 3 0 0 0 0 0 0 0 0 0 0 0 0 0 0 0 0 0 0 0 0 0 0 0 0 0 0 0 0 0 0 0 0 0 0 0
6 6 6 6 6 6 0 0 0 0 0 0 0 0 0 0 0 0 0 0 0 0 0 0 0 0 0 0 0 0 0 0 0 0 0 0 0 0 0 0 0 0 0
10 10 3 0 0 0 0 0 0 0 0 0 0 0 0 0 0 0 0 0 0 0 0 0 0 0 0 0 0 0 0 0 0 0 0 0 0 0 0 0 0 0 0
3 0 0 0 0 0 0 0 0 0 0 0 0 0 0 0 0 0 0 0 0 0 0 0 0 0 0 0 0 0 0 0 0 0 0 0 0 0 0 0 0 0 0
0 0 0 0 0 0 0 0 0 0 0 0 0 0 0 0 0 0 0 0 0 0 0 0 0 0 0 0 0 0 0 0 0 0 0 0 0 0 0 0 0 0 0
0 0 0 0 0 0 0 0 0 0 0 0 0 0 0 0 0 0 0 0 0 0 0 0 0 0 0 0 0 0 0 0 0 0 0 0 0 0 0 0 0 0 0
0 0 0 0 0 0 0 0 0 0 0 0 0 0 0 0 0 0 0 0 0 0 0 0 0 0 0 0 0 0 0 0 0 0 0 0 0 0 0 0 0 0 0
0 0 0 0 0 0 0 0 0 0 0 0 0 0 0 0 0 0 0 0 0 0 0 0 0 0 0 0 0 0 0 0 0 0 0 0 0 0 0 0 0 0 0
3 3 0 0 0 0 0 0 0 0 0 0 0 0 0 0 0 0 0 0 0 0 0 0 0 0 0 0 0 0 0 0 0 0 0 0 0 0 0 0 0 0 0
3 3 3 3 3 0 0 0 0 0 0 0 0 0 0 0 0 0 0 0 0 0 0 0 0 0 0 0 0 0 0 0 0 0 0 0 0 0 0 0 0 0 0
3 3 3 3 3 3 3 3 0 0 0 0 0 0 0 0 0 0 0 0 0 0 0 0 0 0 0 0 0 0 0 0 0 0 0 0 0 0 0 0 0 0 0
0 0 0 3 3 3 3 3 3 3 0 0 0 0 0 0 0 0 0 0 0 0 0 0 0 0 0 0 0 0 0 0 0 0 0 0 0 0 0 0 0 0 0
0 0 0 0 0 3 3 3 3 3 3 3 3 0 0 0 0 0 0 0 0 0 0 0 0 0 0 0 0 0 0 0 0 0 0 0 0 0 0 0 0 0 0
0 0 0 0 0 0 0 3 3 3 3 3 3 0 0 0 0 0 0 0 0 0 0 0 0 0 0 0 0 0 0 0 0 0 0 0 0 0 0 0 0 0 0
0 0 0 0 0 0 0 0 0 3 3 3 3 0 0 0 0 0 0 0 0 0 0 0 0 0 0 0 0 0 0 0 0 0 0 0 0 0 0 0 0 0 0
0 0 0 0 0 0 0 0 0 0 0 0 0 0 0 0 0 0 0 0 0 0 0 0 0 0 0 0 0 0 0 0 0 0 0 0 0 0 0 0 0 0 0
0 0 0 0 0 0 0 0 0 0 0 0 0 0 0 0 0 0 0 0 0 0 0 0 0 0 0 0 0 0 0 0 0 0 0 0 0 0 0 0 0 0 0
0 0 0 0 0 0 0 0 0 0 0 0 0 0 0 0 0 0 0 0 0 0 0 0 0 0 0 0 0 0 0 0 0 0 0 0 0 0 0 0 0 0 0

GEFSGL_con_cape1000_186.txt.gz
Probability
68 61 55 55 52 52 58 52 52 58 48 42 35 26 26 26 29 26 16 16 16 13 13 10 16 19 3 0 3 13 6 6 6 3 13 10 13 16 10 13 10 10 6
68 55 55 52 52 48 52 52 55 52 52 39 35 29 29 26 29 23 16 13 16 10 10 10 6 3 6 0 3 3 6 6 6 10 3 6 6 13 16 19 6 3 3
61 58 52 48 48 52 48 55 55 52 45 42 35 29 29 26 26 23 19 16 16 13 10 10 13 3 6 3 6 6 3 3 10 10 6 13 6 6 6 6 6 10 0
58 58 52 55 42 48 55 58 55 48 45 35 32 26 23 23 23 16 16 19 19 16 13 10 13 13 6 6 6 6 6 6 10 6 10 3 6 0 6 10 10 10 6
61 55 52 55 48 55 55 55 52 42 35 39 32 26 26 23 16 19 19 13 16 16 16 13 10 10 3 0 3 3 3 3 3 3 3 3 3 6 6 6 10 10 10
55 52 52 48 52 52 48 42 48 45 42 42 32 23 23 16 3 0 6 10 13 23 23 13 10 6 0 0 0 0 0 3 3 6 6 0 6 3 6 6 6 10 0
58 52 48 45 48 42 26 35 42 45 45 42 32 32 26 16 0 0 0 10 13 23 29 26 3 0 3 3 0 0 0 0 0 0 0 0 3 3 10 10 10 6 6
58 45 42 42 35 29 26 29 45 45 45 45 42 29 23 19 0 0 0 0 13 19 23 23 23 16 3 6 6 3 3 3 0 0 0 0 3 3 3 6 10 10 6
55 48 45 39 35 35 26 29 39 39 39 42 35 29 29 19 0 0 0 0 16 16 19 16 19 13 3 0 3 3 6 6 0 0 0 0 0 0 0 3 3 0 6
42 42 42 39 42 35 35 35 35 42 35 32 32 32 32 32 3 0 0 3 16 19 26 23 0 0 0 0 0 0 3 3 0 0 0 0 0 0 0 0 0 0 0
45 48 42 42 35 45 45 45 39 39 35 35 26 29 39 29 6 0 0 6 16 16 13 19 10 0 0 0 0 0 0 0 0 0 0 0 0 0 0 0 3 0 0
42 42 48 42 32 29 42 48 42 45 45 45 39 35 39 26 3 0 0 0 0 10 16 6 0 0 0 0 0 0 0 0 0 0 0 0 0 0 3 3 3 3 3
45 45 48 45 42 35 39 42 45 48 42 29 26 29 19 26 10 0 0 0 0 3 6 0 0 0 0 0 0 0 0 0 0 0 0 0 0 0 3 3 3 3 3
48 48 42 39 35 42 39 32 23 23 13 13 16 19 23 23 26 13 3 3 0 0 0 0 0 0 0 0 0 0 0 0 0 0 0 0 0 6 6 6 0 0 3
48 42 35 32 39 29 26 26 23 29 16 23 23 23 26 26 13 3 10 6 3 0 0 3 0 0 0 0 0 0 0 0 0 0 0 0 0 3 6 0 6 0 0
52 42 45 42 39 23 19 16 3 3 0 0 0 0 6 3 0 0 0 0 0 0 0 6 0 0 0 0 0 0 0 0 0 0 0 0 0 0 0 0 0 0 0
42 42 39 35 26 23 16 13 13 3 0 0 0 0 0 0 0 0 0 0 0 0 0 0 0 0 0 0 3 0 0 3 3 3 0 0 0 0 0 0 0 0 0
35 19 26 29 23 16 16 13 13 13 6 6 0 0 0 0 0 0 0 0 0 0 0 0 0 0 0 3 3 0 0 0 3 3 3 3 0 0 0 0 0 0 0
23 23 19 16 16 13 16 13 13 10 10 10 6 0 0 0 0 0 0 0 0 0 0 0 0 0 0 3 3 3 3 0 3 3 3 3 0 0 0 0 0 0 0
19 3 6 13 10 13 13 10 10 13 10 3 3 0 0 0 0 0 0 0 0 0 0 0 0 0 0 0 0 0 0 0 3 0 0 3 3 3 3 0 0 0 0
10 3 0 10 10 10 6 6 10 10 10 10 3 0 0 3 3 3 0 0 0 0 0 0 0 0 0 0 0 0 0 0 0 0 3 3 3 3 3 3 0 0 0
6 6 6 6 10 6 10 10 10 6 6 3 0 3 0 3 3 3 3 0 0 0 0 0 0 0 0 0 0 0 0 0 0 0 3 3 3 0 0 0 0 0 0
6 6 3 3 6 0 3 3 3 3 3 0 0 0 0 0 0 0 0 0 0 0 0 0 0 0 0 0 0 0 0 0 0 0 0 0 0 0 0 0 0 0 0
6 6 3 0 3 3 3 3 3 3 0 0 0 0 0 0 0 0 0 0 0 0 0 0 0 0 0 0 0 0 0 0 0 0 0 0 0 0 0 0 0 0 0
3 3 3 3 3 3 3 3 3 0 0 0 0 0 0 0 0 0 0 0 0 0 0 0 0 0 0 0 0 0 0 0 0 0 0 0 0 0 0 0 0 0 0
3 3 3 3 3 3 3 0 0 0 0 0 0 0 0 0 0 0 0 0 0 0 0 0 0 0 0 0 0 0 0 0 0 0 0 0 0 0 0 0 0 0 0

GEFSGL_con_cape1000_192.txt.gz
Probability
87 87 90 94 90 84 74 74 71 68 68 61 65 61 55 55 42 45 42 45 42 39 35 29 29 29 42 45 42 35 16 23 23 16 29 32 26 13 3 26 23 6 0
87 84 90 90 87 74 74 74 68 65 61 65 61 65 48 48 52 45 42 42 39 35 32 29 29 26 32 39 42 39 26 26 13 13 23 26 26 26 16 26 10 10 13
81 74 77 77 81 90 74 74 61 61 65 58 65 68 58 48 42 42 42 35 32 32 32 32 29 23 35 29 29 29 26 10 19 16 19 26 26 13 16 19 10 26 6
84 77 74 81 84 90 84 84 77 65 61 65 61 58 55 52 35 35 32 35 35 26 29 29 29 26 29 29 19 26 26 23 26 13 16 16 16 16 16 10 13 16 13
84 71 71 81 84 87 84 81 77 65 55 65 61 55 52 39 32 29 32 32 32 23 19 26 23 16 16 19 10 19 6 23 19 16 13 16 10 13 6 10 13 13 6
74 74 71 77 81 81 87 81 81 65 55 55 52 52 48 26 13 10 23 29 29 19 23 29 26 16 0 0 0 0 0 0 6 6 10 13 13 13 6 3 3 6 3
71 71 68 65 74 74 55 65 74 71 61 65 52 48 45 26 10 3 3 26 32 26 23 26 10 10 0 3 0 0 0 0 0 3 6 13 10 13 16 6 10 10 10
68 65 58 58 58 68 71 68 74 71 68 68 52 45 45 32 10 0 0 10 23 32 29 29 23 26 13 19 16 6 10 6 0 0 0 3 3 10 13 6 10 3 3
45 61 58 58 58 65 68 68 68 71 74 68 61 58 55 35 10 0 0 13 19 19 19 26 29 26 13 0 3 16 16 13 3 0 0 0 0 0 0 0 0 0 0
42 52 58 61 65 61 61 68 68 68 65 58 55 52 48 39 13 0 0 13 16 23 29 23 6 3 6 0 0 10 10 10 6 3 0 0 0 0 0 0 0 0 0
52 52 58 58 61 61 65 71 68 61 55 48 55 52 52 35 13 0 0 13 16 19 19 19 13 0 0 0 0 3 3 0 3 3 3 3 0 0 0 0 0 0 0
61 58 61 55 45 42 68 68 68 61 55 55 52 48 42 29 13 0 0 0 3 13 13 13 6 0 0 0 0 0 0 0 0 0 0 0 0 0 3 3 0 0 0
61 58 61 58 58 52 58 55 58 55 45 26 23 23 23 23 16 0 0 0 0 0 6 6 0 0 0 0 0 0 0 0 0 0 0 0 0 3 3 10 13 3 0
48 52 55 52 48 45 42 42 32 23 19 29 19 23 23 19 16 3 0 0 0 0 0 0 0 0 0 0 0 0 0 0 0 0 0 0 0 0 0 3 6 6 3
45 42 39 35 32 32 29 23 29 23 16 13 26 26 16 16 0 0 3 0 0 0 0 0 3 3 3 0 0 0 0 0 0 0 0 0 0 0 0 0 3 3 3
42 42 35 26 26 23 23 16 3 3 3 3 0 3 6 0 0 0 0 0 0 0 0 0 0 3 0 0 3 3 0 0 0 0 0 0 0 0 0 0 3 3 3
39 35 29 26 26 19 19 13 10 3 3 0 0 0 0 0 0 0 0 0 0 0 0 3 10 6 6 6 6 6 6 3 3 3 0 0 0 0 0 0 0 0 3
32 29 26 32 29 26 19 16 10 6 6 3 3 0 0 0 0 0 0 0 0 0 3 3 6 10 6 6 6 6 3 6 6 6 6 6 6 3 3 0 0 0 0
26 29 26 23 29 26 26 13 6 10 6 6 3 0 0 0 0 0 0 0 0 3 3 0 3 3 3 6 6 6 0 0 0 0 0 0 0 0 0 0 0 0 0
19 13 16 19 19 19 23 16 13 6 6 3 3 0 0 0 0 0 0 0 3 3 6 0 3 3 0 0 3 3 0 0 0 0 0 0 0 0 0 0 0 0 0
16 3 0 3 6 16 16 16 13 10 3 3 3 3 0 0 0 0 0 3 3 3 0 0 0 0 0 0 0 0 0 0 0 0 0 0 0 0 0 0 0 0 0
16 10 6 3 10 10 10 6 10 6 6 6 3 0 0 0 0 0 0 0 0 0 0 0 0 0 0 0 0 0 0 0 0 0 0 0 0 0 0 0 0 0 0
13 10 10 3 0 0 3 6 6 6 6 6 3 3 3 0 0 0 0 0 0 0 0 0 0 0 0 0 0 0 0 0 0 0 0 0 0 0 0 0 0 0 0
6 6 3 3 3 0 3 3 3 3 3 3 0 0 0 0 0 0 0 0 0 0 0 0 0 0 0 0 0 0 0 0 0 0 0 0 0 0 0 0 0 0 0
6 3 3 3 3 0 3 3 3 3 3 3 0 0 0 0 0 0 0 0 0 0 0 0 0 0 0 0 0 0 0 0 0 0 0 0 0 0 0 0 0 0 0
3 3 3 3 0 0 0 3 3 0 0 0 0 0 0 0 0 0 0 0 0 0 0 0 0 0 0 0 0 0 0 0 0 0 0 0 0 0 0 0 0 0 0

GEFSGL_con_cape1000_198.txt.gz
Probability
58 58 52 48 42 39 29 26 23 19 19 16 19 19 23 16 16 3 6 6 6 3 0 0 0 0 0 0 0 0 0 0 0 0 0 0 0 0 0 0 0 0 0
55 58 55 48 42 42 39 32 19 19 23 19 16 16 13 10 10 6 10 6 6 6 6 3 0 0 0 0 0 0 0 0 0 0 0 0 0 0 0 0 0 0 0
52 55 55 48 45 39 39 35 23 23 19 16 10 13 10 10 10 10 6 6 6 6 6 6 3 3 0 0 0 0 0 0 0 0 0 0 0 0 0 0 0 0 0
48 52 48 42 39 42 39 32 29 19 19 19 13 13 10 10 10 6 6 6 6 6 6 6 3 3 3 0 0 0 0 0 0 0 0 0 0 0 0 0 0 0 0
45 52 42 32 29 23 26 26 23 19 13 13 13 13 13 10 10 6 6 6 6 6 6 6 3 3 0 0 0 0 0 0 0 0 0 0 0 0 0 0 0 0 0
42 32 32 26 26 23 23 23 19 19 19 13 16 13 13 13 13 6 6 6 6 6 6 6 6 3 0 0 0 0 0 0 0 0 0 0 0 0 0 0 0 0 0
32 32 35 35 29 23 19 19 19 19 19 13 13 16 13 10 10 6 3 6 6 6 6 6 6 10 3 0 0 0 0 0 0 0 0 0 0 0 0 0 0 0 0
23 23 29 29 26 29 26 16 16 19 19 16 13 13 10 10 6 6 0 3 6 6 6 6 6 3 3 0 0 0 0 0 0 0 0 0 0 0 0 0 0 0 0
29 29 29 26 29 29 29 26 16 13 13 13 13 13 10 10 6 0 0 3 3 3 3 6 6 3 0 0 0 0 0 0 0 0 0 0 0 0 0 0 0 0 0
26 26 23 23 23 19 19 23 23 16 19 19 16 10 10 10 6 0 0 3 3 3 3 3 0 0 0 0 0 0 0 0 0 0 0 0 0 0 0 0 0 0 0
16 19 16 16 19 16 16 16 16 13 10 6 6 3 3 3 3 0 0 3 3 3 3 0 0 0 0 0 0 0 0 0 0 0 0 0 0 0 0 0 0 0 0
6 10 13 10 16 10 10 10 10 10 10 3 3 3 3 3 3 0 0 0 0 0 0 0 0 0 0 0 0 0 0 0 0 0 0 0 0 0 0 0 0 0 0
6 6 3 6 3 10 6 10 6 6 10 6 3 3 3 0 0 0 0 0 0 0 0 0 0 0 0 0 0 0 0 0 0 0 0 0 0 0 0 0 0 0 0
6 6 6 6 3 3 0 0 0 3 6 3 3 0 0 0 0 0 0 0 0 0 0 0 0 0 0 0 0 0 0 0 0 0 0 0 0 0 0 0 0 0 0
10 10 6 3 3 0 0 0 0 0 0 0 0 0 0 0 0 0 0 0 0 0 0 0 0 0 0 0 0 0 0 0 0 0 0 0 0 0 0 0 0 0 0
13 6 3 0 0 0 3 0 0 0 0 0 0 0 0 0 0 0 0 0 0 0 0 0 0 0 0 0 0 0 0 0 0 0 0 0 0 0 0 0 0 0 0
6 6 6 3 3 0 3 3 3 0 0 0 0 0 0 0 0 0 0 0 0 0 0 0 0 0 0 0 0 0 0 0 0 0 0 0 0 0 0 0 0 0 0
3 3 3 3 3 3 3 3 3 0 0 0 0 0 0 0 0 0 0 0 0 0 0 0 0 0 0 0 0 0 0 0 0 0 0 0 0 0 0 0 0 0 0
6 3 3 3 3 3 3 0 0 0 0 0 0 0 0 0 0 0 0 0 0 0 0 0 0 0 0 0 0 0 0 0 0 0 0 0 0 0 0 0 0 0 0
3 0 0 0 0 0 0 0 0 0 0 0 0 0 0 0 0 0 0 0 0 0 0 0 0 0 0 0 0 0 0 0 0 0 0 0 0 0 0 0 0 0 0
0 0 0 0 0 0 0 0 0 0 0 0 0 0 0 0 0 0 0 0 0 0 0 0 0 0 0 0 0 0 0 0 0 0 0 0 0 0 0 0 0 0 0
0 0 0 0 0 0 0 0 0 0 0 0 0 0 0 0 0 0 0 0 0 0 0 0 0 0 0 0 0 0 0 0 0 0 0 0 0 0 0 0 0 0 0
0 0 0 0 0 0 0 0 0 0 0 0 0 0 0 0 0 0 0 0 0 0 0 0 0 0 0 0 0 0 0 0 0 0 0 0 0 0 0 0 0 0 0
0 0 0 0 0 0 0 0 0 0 0 0 0 0 0 0 0 0 0 0 0 0 0 0 0 0 0 0 0 0 0 0 0 0 0 0 0 0 0 0 0 0 0
0 0 0 0 0 0 0 0 0 0 0 0 0 0 0 0 0 0 0 0 0 0 0 0 0 0 0 0 0 0 0 0 0 0 0 0 0 0 0 0 0 0 0
0 0 0 0 0 0 0 0 0 0 0 0 0 0 0 0 0 0 0 0 0 0 0 0 0 0 0 0 0 0 0 0 0 0 0 0 0 0 0 0 0 0 0

GEFSGL_con_cape1000_204.txt.gz
Probability
48 35 42 35 23 19 19 23 19 19 16 13 13 10 10 6 10 6 3 0 0 0 0 0 0 0 0 0 0 0 0 0 0 0 0 0 0 0 0 0 0 0 0
45 42 32 29 26 23 19 23 23 19 16 13 13 13 10 10 10 6 3 6 3 3 6 3 3 0 0 0 0 0 0 0 0 0 0 0 0 0 0 0 0 0 0
35 35 26 26 26 23 19 19 16 16 13 13 13 13 13 13 13 10 6 10 3 3 6 6 6 6 6 0 0 0 0 0 0 0 0 0 0 0 0 0 0 0 0
26 29 29 26 29 26 23 16 10 13 13 13 10 10 13 13 10 10 10 6 6 6 6 6 6 6 6 6 0 0 0 0 0 0 0 0 0 0 0 0 0 0 0
26 32 29 16 19 19 16 13 10 13 13 13 13 13 13 13 10 10 10 6 6 6 6 6 6 6 6 3 6 3 0 0 0 0 0 0 0 0 0 0 0 0 0
29 29 23 16 16 16 16 16 16 13 10 16 16 16 13 13 13 3 0 6 6 6 6 6 6 3 0 0 0 0 0 0 0 0 0 0 0 0 0 0 0 0 0
29 23 23 19 19 16 16 16 16 16 13 10 16 16 13 13 6 3 0 3 6 6 6 6 6 6 3 6 0 0 0 0 0 0 0 0 0 0 0 0 0 0 0
23 16 16 16 16 13 13 16 16 16 16 10 10 13 10 10 3 0 0 0 3 6 6 6 6 6 6 6 6 0 0 0 0 0 0 0 0 0 0 0 0 0 0
13 10 10 10 10 10 13 10 10 10 13 13 13 13 6 6 3 0 0 0 3 6 6 6 6 6 3 0 0 0 0 0 0 0 0 0 0 0 0 0 0 0 0
6 10 10 10 10 10 6 10 10 10 6 6 6 13 6 6 3 0 0 0 3 3 3 3 0 0 3 0 0 0 0 0 0 0 0 0 0 0 0 0 0 0 0
3 3 10 10 10 3 3 3 6 6 6 10 6 6 3 3 3 0 0 0 0 3 3 3 3 0 0 0 0 0 0 0 0 0 0 0 0 0 0 0 0 0 0
0 3 3 3 6 3 3 3 3 6 6 6 6 6 0 0 0 0 0 0 0 3 3 0 0 0 0 0 0 0 0 0 0 0 0 0 0 0 0 0 0 0 0
0 3 3 3 3 3 3 3 3 3 6 6 6 6 3 0 0 0 0 0 0 0 0 0 0 0 0 0 0 0 0 0 0 0 0 0 0 0 0 0 0 0 0
3 3 3 3 3 3 3 3 3 3 6 6 6 3 0 0 0 0 0 0 0 0 0 0 0 0 0 0 0 0 0 0 0 0 0 0 0 0 0 0 0 0 0
3 3 3 3 3 3 3 0 3 3 3 0 0 0 0 0 0 0 0 0 0 0 0 0 0 0 0 0 0 0 0 0 0 0 0 0 0 0 0 0 0 0 0
3 3 3 3 3 0 0 0 0 0 0 0 0 0 0 0 0 0 0 0 0 0 0 0 0 0 0 0 0 0 0 0 0 0 0 0 0 0 0 0 0 0 0
3 3 0 0 0 0 0 0 0 0 0 0 0 0 0 0 0 0 0 0 0 0 0 0 0 0 0 0 0 0 0 0 0 0 0 0 0 0 0 0 0 0 0
0 0 0 0 0 0 0 0 0 0 0 0 0 0 0 0 0 0 0 0 0 0 0 0 0 0 0 0 0 0 0 0 0 0 0 0 0 0 0 0 0 0 0
0 0 0 0 0 0 0 0 0 0 0 0 0 0 0 0 0 0 0 0 0 0 0 0 0 0 0 0 0 0 0 0 0 0 0 0 0 0 0 0 0 0 0
0 0 0 0 0 0 0 0 0 0 0 0 0 0 0 0 0 0 0 0 0 0 0 0 0 0 0 0 0 0 0 0 0 0 0 0 0 0 0 0 0 0 0
0 0 0 0 0 0 0 0 0 0 0 0 0 0 0 0 0 0 0 0 0 0 0 0 0 0 0 0 0 0 0 0 0 0 0 0 0 0 0 0 0 0 0
0 0 0 0 0 0 0 0 0 0 0 0 0 0 0 0 0 0 0 0 0 0 0 0 0 0 0 0 0 0 0 0 0 0 0 0 0 0 0 0 0 0 0
0 0 0 0 0 0 0 0 0 0 0 0 0 0 0 0 0 0 0 0 0 0 0 0 0 0 0 0 0 0 0 0 0 0 0 0 0 0 0 0 0 0 0
0 0 0 0 0 0 0 0 0 0 0 0 0 0 0 0 0 0 0 0 0 0 0 0 0 0 0 0 0 0 0 0 0 0 0 0 0 0 0 0 0 0 0
0 0 0 0 0 0 0 0 0 0 0 0 0 0 0 0 0 0 0 0 0 0 0 0 0 0 0 0 0 0 0 0 0 0 0 0 0 0 0 0 0 0 0
0 0 0 0 0 0 0 0 0 0 0 0 0 0 0 0 0 0 0 0 0 0 0 0 0 0 0 0 0 0 0 0 0 0 0 0 0 0 0 0 0 0 0

GEFSGL_con_cape1000_210.txt.gz
Probability
84 81 77 71 74 68 74 74 68 65 65 61 61 61 61 65 61 61 58 55 55 65 61 55 68 58 45 42 32 26 35 29 26 13 16 26 42 45 32 29 19 26 13
84 84 77 74 74 68 68 68 68 65 61 58 61 55 55 58 65 65 61 55 58 58 48 55 52 48 48 52 52 32 29 32 29 32 26 35 39 39 39 52 10 6 13
81 77 74 74 74 71 71 68 61 61 61 55 52 55 55 55 65 61 58 55 48 48 48 48 45 42 45 48 45 23 19 13 26 26 29 35 32 29 39 32 10 26 3
68 74 74 71 68 68 68 68 61 65 61 52 48 52 52 55 52 55 52 58 52 48 45 45 42 39 45 42 35 39 35 29 32 32 29 26 32 32 35 26 16 19 10
68 71 71 71 71 71 65 65 58 52 45 58 55 58 55 52 48 48 48 42 45 45 42 42 32 26 19 23 16 29 29 32 29 35 23 23 19 35 29 26 16 16 19
65 68 71 74 71 68 61 61 61 61 58 58 55 52 48 32 19 13 29 32 35 35 45 39 32 19 10 6 0 3 6 26 26 29 23 23 29 26 29 19 10 10 10
65 68 71 61 65 61 55 55 55 61 58 52 48 48 48 39 16 3 0 26 32 42 39 42 16 13 10 13 6 0 0 0 0 19 16 26 29 26 29 13 23 13 13
61 61 61 58 58 55 58 48 52 58 58 48 45 42 42 23 13 3 0 13 29 29 32 32 19 16 13 13 16 13 23 19 6 3 19 26 19 23 26 23 26 23 26
52 52 52 58 58 58 48 55 45 55 45 45 39 39 35 23 13 3 0 23 26 19 16 13 13 16 10 3 6 19 23 23 6 0 0 0 0 0 0 10 16 16 10
42 48 48 52 52 48 52 52 48 45 35 32 19 29 23 23 16 3 0 10 10 10 19 13 6 6 6 3 6 16 16 16 16 10 0 0 0 0 0 3 13 13 6
39 42 45 48 52 48 52 48 42 39 29 19 19 19 19 16 13 0 0 16 10 16 6 6 6 0 0 0 0 6 6 3 13 10 13 16 19 16 13 6 6 3 0
32 32 35 35 29 32 39 39 32 39 29 19 23 16 16 13 10 3 0 0 0 16 16 10 10 0 0 0 0 0 0 0 0 3 3 0 0 3 10 10 3 3 6
42 39 32 35 35 29 29 29 32 29 19 16 19 19 13 16 13 0 0 0 0 0 10 0 0 0 0 0 0 0 0 0 0 0 0 0 3 0 0 6 6 3 3
35 35 32 32 35 32 29 23 16 16 13 6 10 10 10 10 6 10 6 3 0 0 0 0 0 0 0 0 0 0 0 0 0 0 3 3 3 0 3 3 0 0 0
35 35 29 26 23 26 26 19 13 10 10 10 13 13 13 13 0 0 0 6 3 6 3 3 0 0 0 0 0 0 0 0 0 0 3 0 3 0 0 0 0 0 3
35 32 26 26 23 19 19 13 0 0 0 0 3 3 0 0 0 0 0 0 0 0 0 3 3 3 3 3 3 3 0 0 0 3 3 3 6 0 0 0 3 3 0
29 23 19 19 16 19 19 10 3 0 0 0 0 0 0 0 0 0 0 0 0 0 0 0 0 0 3 3 6 3 3 3 3 3 6 6 6 3 3 6 6 6 6
23 13 13 23 13 13 13 6 6 6 3 6 0 0 0 0 0 0 0 0 0 0 0 0 0 0 0 0 0 3 0 0 0 0 0 0 3 3 3 3 3 3 3
19 19 19 19 13 10 10 6 6 6 6 6 3 0 0 0 0 0 0 0 0 0 0 0 0 0 0 0 0 0 0 0 0 0 0 0 0 3 3 3 0 0 0
19 10 10 19 13 13 13 10 3 3 3 3 0 3 0 0 0 0 0 0 0 0 0 0 0 0 0 0 0 0 0 0 0 0 0 0 0 0 0 0 0 0 0
13 6 3 6 13 10 10 6 3 3 3 0 0 3 0 0 0 0 0 0 0 0 0 0 0 0 0 0 0 0 0 0 0 0 0 0 0 0 0 0 0 0 0
6 3 6 6 3 3 3 3 3 0 0 0 0 0 0 0 0 0 0 0 0 0 0 0 0 0 0 0 0 0 0 0 0 0 0 0 0 0 0 0 0 0 0
3 3 6 0 0 0 0 0 0 0 0 0 0 0 0 0 0 0 0 0 0 0 0 0 0 0 0 0 0 0 0 0 0 0 0 0 0 0 0 0 0 0 0
0 0 0 0 0 0 0 0 0 0 0 0 0 0 0 0 0 0 0 0 0 0 0 0 0 0 0 0 0 0 0 0 0 0 0 0 0 0 0 0 0 0 0
0 0 0 0 0 0 0 0 0 0 0 0 0 0 0 0 0 0 0 0 0 0 0 0 0 0 0 0 0 0 0 0 0 0 0 0 0 0 0 0 0 0 0
0 0 0 0 0 0 0 0 0 0 0 0 0 0 0 0 0 0 0 0 0 0 0 0 0 0 0 0 0 0 0 0 0 0 0 0 0 0 0 0 0 0 0

GEFSGL_con_cape1000_216.txt.gz
Probability
90 90 90 87 84 84 74 77 74 77 84 77 74 77 81 74 74 74 71 61 61 68 65 61 68 68 65 61 52 58 45 26 29 32 42 29 32 32 6 29 19 6 3
90 90 90 94 90 84 81 81 81 81 74 74 74 77 74 74 74 71 68 68 55 55 55 58 58 55 58 61 55 48 48 42 32 23 32 35 32 32 32 29 13 3 10
90 90 90 90 90 90 77 77 81 74 71 71 68 71 68 68 68 74 65 58 58 52 58 52 52 55 55 52 52 45 45 29 39 35 32 35 35 23 29 23 19 13 10
81 81 81 84 87 84 81 77 74 68 68 68 65 65 65 61 68 68 68 71 61 52 55 55 58 52 52 45 48 39 45 35 32 29 29 29 29 32 32 23 16 19 13
81 77 74 74 81 77 77 71 74 68 65 65 58 58 58 48 45 52 58 48 52 48 48 48 48 42 39 35 26 39 42 39 35 23 19 23 23 23 23 23 16 23 16
77 74 74 71 71 71 68 71 74 68 61 65 58 55 48 35 29 19 39 48 42 45 42 42 35 29 13 6 3 3 10 13 23 19 23 19 19 16 19 19 16 13 10
77 74 77 74 71 61 61 68 71 68 61 61 55 55 42 32 23 6 0 32 52 52 42 39 26 23 10 29 10 6 3 0 0 6 16 19 19 23 19 16 16 16 13
71 68 71 71 61 68 65 61 65 61 61 55 52 45 42 32 19 10 3 16 48 42 39 35 39 35 16 23 19 10 13 10 3 3 10 10 13 16 16 13 19 10 16
61 58 61 58 61 68 68 61 58 52 52 48 48 42 48 19 16 6 0 23 42 42 35 32 32 26 13 3 6 13 23 16 10 3 0 3 3 3 3 6 10 6 6
55 52 52 58 58 61 68 68 55 52 48 48 39 39 39 19 13 6 0 16 35 39 35 35 13 3 6 0 6 13 13 16 16 13 6 6 6 3 0 3 3 3 3
48 48 52 55 58 55 52 55 55 48 45 42 32 32 35 23 13 6 0 13 19 19 23 19 16 3 0 0 0 6 6 3 10 16 16 16 16 6 3 6 6 3 3
48 48 52 55 45 35 52 45 45 45 42 42 42 35 32 19 13 6 0 0 0 16 13 6 6 0 0 0 0 0 0 0 3 6 10 6 6 6 10 10 6 6 3
52 52 58 52 48 48 45 42 42 42 39 35 29 23 19 19 10 0 0 0 0 0 3 0 0 0 0 0 0 0 0 0 0 0 0 3 3 3 3 10 10 13 10
48 48 45 42 39 42 39 35 32 29 32 26 19 19 26 19 13 3 3 0 0 0 0 0 0 0 0 0 0 0 0 0 0 0 0 3 3 6 6 6 3 10 3
45 42 39 35 32 32 23 16 19 16 13 13 26 19 19 10 0 0 3 3 3 6 3 6 10 6 3 3 3 3 3 3 0 3 3 3 3 3 3 6 6 0 0
35 39 35 35 29 26 16 10 0 0 0 0 3 6 3 0 0 0 0 0 0 0 3 3 0 3 6 13 6 6 6 3 3 3 3 3 0 3 0 0 0 3 3
35 32 35 35 26 26 23 16 10 0 0 0 0 0 0 0 0 0 0 0 0 0 3 0 0 0 6 3 3 3 6 6 3 3 3 0 3 3 3 0 0 0 0
29 26 29 26 26 26 23 23 16 6 3 0 0 0 0 0 0 0 0 0 0 0 0 0 0 3 3 3 0 3 3 3 3 0 0 0 0 0 0 0 0 0 0
26 26 26 26 26 26 23 23 13 13 10 3 0 0 0 0 0 0 0 0 0 0 0 0 0 0 0 0 0 0 0 0 0 0 0 0 0 0 0 0 0 0 0
26 10 16 19 16 16 13 13 13 13 6 0 3 3 0 0 0 0 0 0 0 0 0 0 0 0 0 0 0 0 0 0 0 0 0 0 0 0 0 0 0 0 0
16 10 6 10 16 13 13 10 10 6 3 0 3 0 0 0 0 0 0 0 0 0 0 0 0 0 0 0 0 0 0 0 0 0 0 0 0 0 0 0 0 0 0
10 10 10 6 6 6 6 6 3 0 0 0 3 0 0 0 0 0 0 0 0 0 0 0 0 0 0 0 0 0 0 0 0 0 0 0 0 0 0 0 0 0 0
10 6 6 3 3 0 3 3 0 0 0 3 3 0 0 0 0 0 3 3 0 0 0 0 0 0 0 0 0 0 0 0 0 0 0 0 0 0 0 0 0 0 0
6 6 3 0 0 0 0 0 0 0 3 0 0 0 0 0 0 0 0 0 0 0 0 0 0 0 0 0 0 0 0 0 0 0 0 0 0 0 0 0 0 0 0
3 3 0 0 0 0 0 0 0 0 0 0 0 0 0 0 0 0 0 0 0 0 0 0 0 0 0 0 0 0 0 0 0 0 0 0 0 0 0 0 0 0 0
3 0 0 0 0 0 3 0 0 0 0 0 0 0 0 0 0 0 0 0 0 0 0 0 0 0 0 0 0 0 0 0 0 0 0 0 0 0 0 0 0 0 0

GEFSGL_con_cape1000_222.txt.gz
Probability
68 68 68 61 55 52 52 52 48 45 48 48 39 39 35 32 26 16 19 23 26 26 19 16 13 3 3 3 3 3 3 3 3 3 3 0 0 0 0 3 3 0 0
68 65 58 52 52 55 55 48 45 45 45 39 35 35 35 32 29 23 13 23 16 19 13 10 10 10 6 3 3 3 3 3 3 3 3 3 3 0 3 3 3 3 3
65 61 52 52 55 55 52 48 48 42 35 32 32 29 29 32 29 29 19 19 16 16 13 13 10 10 10 3 3 3 3 3 3 3 3 3 3 3 3 3 3 3 3
65 55 52 58 52 52 48 42 39 32 32 32 29 29 26 23 32 26 19 19 19 16 10 13 10 10 10 10 6 6 3 3 3 3 3 3 3 3 3 3 3 3 3
55 52 52 45 48 48 42 35 32 32 32 26 26 19 26 26 26 23 19 23 19 19 13 13 13 13 16 13 13 6 6 3 3 3 3 3 3 3 3 3 3 3 0
52 45 45 48 42 45 35 35 29 32 32 29 29 26 26 29 16 16 13 16 19 16 10 13 10 13 13 10 3 3 3 3 3 3 3 3 3 3 3 3 3 0 0
42 42 42 42 42 42 32 35 29 29 29 29 29 29 26 16 13 10 10 10 13 16 16 13 13 13 6 6 3 3 3 0 0 3 3 3 3 3 3 3 0 0 0
42 42 39 39 42 32 32 29 26 29 29 29 29 19 16 16 13 10 10 3 6 10 10 10 10 10 13 6 6 3 0 0 3 0 0 0 3 3 3 3 0 0 0
32 35 45 42 35 32 29 29 23 23 23 23 16 16 16 16 13 13 3 3 3 6 6 6 6 10 10 0 0 0 0 0 0 0 0 0 0 0 0 0 0 0 0
29 32 32 32 26 26 26 23 16 16 16 13 10 6 10 10 3 3 3 3 6 6 6 6 3 3 0 0 0 0 0 0 0 0 0 0 0 0 0 0 0 0 0
26 32 35 26 26 26 16 16 16 16 10 3 3 3 3 3 3 3 3 3 3 3 3 0 0 0 0 0 0 0 0 0 0 0 0 0 0 0 0 0 0 0 0
23 23 32 29 29 16 16 16 16 13 6 3 3 3 3 3 3 3 3 0 0 0 0 0 0 0 0 0 0 0 0 0 0 0 0 0 0 0 0 0 0 0 0
23 23 23 23 23 19 16 16 10 10 6 6 3 3 3 3 3 3 0 0 0 0 0 0 0 0 0 0 0 0 0 0 0 0 0 0 0 0 0 0 0 0 0
16 16 23 19 16 16 13 10 10 10 6 6 6 3 3 3 0 0 0 0 0 0 0 0 0 0 0 0 0 0 0 0 0 0 0 0 0 0 0 0 0 0 0
19 16 13 16 16 10 3 0 6 6 3 3 3 3 3 3 0 0 0 0 0 0 0 0 0 0 0 0 0 0 0 0 0 0 0 0 0 0 0 0 0 0 0
19 19 13 16 6 0 0 0 0 0 0 0 3 3 3 0 0 0 0 0 0 0 0 0 0 0 0 0 0 0 0 0 0 0 0 0 0 0 0 0 0 0 0
19 16 13 10 10 0 0 0 0 0 0 0 0 0 0 0 0 0 0 0 0 0 0 0 0 0 0 0 0 0 0 0 0 0 0 0 0 0 0 0 0 0 0
16 16 16 13 6 3 3 3 0 0 0 0 0 0 0 0 0 0 0 0 0 0 0 0 0 0 0 0 0 0 0 0 0 0 0 0 0 0 0 0 0 0 0
16 16 13 10 6 3 3 3 0 0 0 0 0 0 0 0 0 0 0 0 0 0 0 0 0 0 0 0 0 0 0 0 0 0 0 0 0 0 0 0 0 0 0
10 6 10 6 10 0 0 0 0 0 0 0 0 0 0 0 0 0 0 0 0 0 0 0 0 0 0 0 0 0 0 0 0 0 0 0 0 0 0 0 0 0 0
3 6 3 3 3 0 0 0 0 0 0 0 0 0 0 0 0 0 0 0 0 0 0 0 0 0 0 0 0 0 0 0 0 0 0 0 0 0 0 0 0 0 0
3 3 3 3 0 0 0 0 0 0 0 0 0 0 0 0 0 0 0 0 0 0 0 0 0 0 0 0 0 0 0 0 0 0 0 0 0 0 0 0 0 0 0
3 3 0 0 0 0 0 0 0 0 0 0 0 0 0 0 0 0 0 0 0 0 0 0 0 0 0 0 0 0 0 0 0 0 0 0 0 0 0 0 0 0 0
0 0 0 0 0 0 0 0 0 0 0 0 0 0 0 0 0 0 0 0 0 0 0 0 0 0 0 0 0 0 0 0 0 0 0 0 0 0 0 0 0 0 0
0 0 0 0 0 0 0 0 0 0 0 0 0 0 0 0 0 0 0 0 0 0 0 0 0 0 0 0 0 0 0 0 0 0 0 0 0 0 0 0 0 0 0
0 0 0 0 0 0 0 0 0 0 0 0 0 0 0 0 0 0 0 0 0 0 0 0 0 0 0 0 0 0 0 0 0 0 0 0 0 0 0 0 0 0 0

GEFSGL_con_cape1000_228.txt.gz
Probability
42 45 48 45 39 23 26 23 23 13 13 23 13 16 16 10 6 10 10 10 6 10 10 6 6 6 6 3 3 3 3 3 3 3 3 3 3 3 3 3 3 3 3
48 48 48 42 39 29 32 23 26 26 26 26 19 16 19 19 19 13 13 13 13 13 13 10 10 10 13 10 3 3 3 3 3 3 3 3 3 3 3 6 3 3 3
45 48 42 35 35 29 32 26 29 26 23 19 26 26 29 29 26 23 19 13 13 13 13 16 16 10 10 10 6 6 3 3 3 3 3 3 3 3 3 3 3 3 3
42 45 42 42 45 39 32 23 23 19 23 19 19 19 26 26 29 26 23 16 13 16 16 13 13 13 10 10 10 10 10 6 3 3 3 3 6 3 3 3 0 3 3
32 35 39 35 32 32 29 26 23 23 23 23 19 23 23 26 26 23 16 13 16 16 16 13 13 13 10 10 10 10 10 6 6 6 6 3 3 3 3 3 0 0 0
32 29 29 29 29 26 19 26 19 19 23 23 23 26 23 23 16 3 6 6 13 13 13 13 13 10 6 0 0 0 0 6 6 6 3 3 3 3 3 0 0 0 0
32 32 32 32 32 26 19 23 19 23 23 23 23 19 19 23 10 0 0 3 10 13 16 16 13 13 6 6 6 0 0 0 0 3 3 3 6 3 3 0 0 0 0
35 29 29 26 29 29 19 23 23 23 23 16 16 16 19 19 6 0 0 0 6 13 13 13 13 13 6 6 6 10 10 3 0 0 0 3 0 3 0 0 0 0 0
32 29 29 26 19 23 19 19 19 16 13 13 13 13 13 10 6 0 0 3 6 6 10 10 6 6 6 0 0 6 3 3 0 0 0 0 0 0 0 0 0 0 0
19 26 23 19 23 16 10 10 10 10 10 10 10 10 10 3 3 3 0 3 3 3 3 3 3 3 0 0 0 0 0 3 3 0 0 0 0 0 0 0 0 0 3
19 23 23 23 26 23 16 10 10 10 10 10 6 3 3 3 3 3 0 0 3 3 3 3 0 0 0 0 0 0 0 0 0 0 0 0 0 0 0 0 0 0 3
16 19 19 16 19 19 16 16 6 6 6 6 6 3 3 3 3 3 3 0 0 3 3 0 0 0 0 0 0 0 0 0 0 0 0 0 0 0 0 0 0 0 0
16 16 16 13 16 16 13 13 10 6 6 6 6 3 3 3 3 3 3 0 0 0 0 0 0 0 0 0 0 0 0 0 0 0 0 0 0 0 0 0 0 0 0
13 13 13 13 13 13 13 10 10 6 6 6 3 3 3 3 3 0 0 0 0 0 0 0 0 0 0 0 0 0 0 0 0 0 0 0 0 0 0 0 0 0 0
13 13 13 13 13 13 10 10 10 6 6 6 3 3 3 3 3 0 0 0 0 0 0 0 0 0 0 0 0 0 0 0 0 0 0 0 0 0 0 0 0 0 0
13 13 13 10 10 10 10 3 0 0 0 0 3 3 3 3 0 0 0 0 0 0 0 0 0 0 0 0 0 0 0 0 0 0 0 0 0 0 0 0 0 0 0
13 10 10 6 6 6 3 3 0 0 0 0 0 0 0 0 0 0 0 0 0 0 0 0 0 0 0 0 0 0 0 0 0 0 0 0 0 0 0 0 0 0 0
10 6 6 6 6 3 3 3 3 0 0 0 0 0 0 0 0 0 0 0 0 0 0 0 0 0 0 0 0 0 0 0 0 0 0 0 0 0 0 0 0 0 0
6 6 6 6 3 3 3 3 0 0 0 0 0 0 0 0 0 0 0 0 0 0 0 0 0 0 0 0 0 0 0 0 0 0 0 0 0 0 0 0 0 0 0
3 3 6 6 3 3 3 3 0 0 0 0 0 0 0 0 0 0 0 0 0 0 0 0 0 0 0 0 0 0 0 0 0 0 0 0 0 0 0 0 0 0 0
6 6 6 6 6 3 3 0 0 0 0 0 0 0 0 0 0 0 0 0 0 0 0 0 0 0 0 0 0 0 0 0 0 0 0 0 0 0 0 0 0 0 0
3 3 3 3 3 0 0 0 0 0 0 0 0 0 0 0 0 0 0 0 0 0 0 0 0 0 0 0 0 0 0 0 0 0 0 0 0 0 0 0 0 0 0
0 0 0 0 0 0 0 0 0 0 0 0 0 0 0 0 0 0 0 0 0 0 0 0 0 0 0 0 0 0 0 0 0 0 0 0 0 0 0 0 0 0 0
0 0 0 0 0 0 0 0 0 0 0 0 0 0 0 0 0 0 0 0 0 0 0 0 0 0 0 0 0 0 0 0 0 0 0 0 0 0 0 0 0 0 0
0 0 0 0 0 0 0 0 0 0 0 0 0 0 0 0 0 0 0 0 0 0 0 0 0 0 0 0 0 0 0 0 0 0 0 0 0 0 0 0 0 0 0
0 0 0 0 0 0 0 0 0 0 0 0 0 0 0 0 0 0 0 0 0 0 0 0 0 0 0 0 0 0 0 0 0 0 0 0 0 0 0 0 0 0 0

GEFSGL_con_cape1000_234.txt.gz
Probability
74 74 74 74 71 68 68 68 71 74 74 77 71 71 61 52 48 48 45 48 48 45 45 45 42 45 45 45 45 42 39 39 35 39 39 32 45 45 42 42 39 35 26
71 71 68 65 65 65 65 71 71 65 68 68 71 71 52 48 42 42 42 42 42 45 42 39 39 39 45 48 45 39 32 39 35 42 48 39 42 45 45 45 32 19 26
71 68 65 65 68 65 65 65 65 61 61 58 61 55 45 45 45 42 42 39 39 35 35 35 32 32 45 42 39 32 35 32 42 39 39 42 39 45 48 42 32 35 10
71 71 68 65 68 71 61 61 61 65 52 52 48 45 35 39 35 32 35 32 35 35 32 35 35 29 45 42 32 42 29 29 29 32 32 42 39 39 39 39 32 29 29
65 61 61 65 68 61 65 65 61 52 42 42 39 39 32 32 32 32 29 26 29 35 32 32 32 29 29 29 23 35 32 26 23 26 26 26 35 35 32 35 26 29 32
61 61 58 65 61 58 61 61 58 52 45 42 42 35 32 23 19 19 19 26 29 32 26 29 26 26 13 10 3 3 10 26 23 19 26 29 39 32 32 23 32 29 13
58 58 55 58 58 55 48 48 48 42 39 39 35 32 32 23 16 6 0 23 26 35 32 39 26 23 23 26 13 3 3 0 0 23 16 19 23 29 32 23 23 16 16
71 61 58 52 45 48 48 48 42 35 32 32 32 29 29 19 6 3 0 19 26 26 26 23 26 23 16 19 23 19 26 16 6 6 13 16 16 16 16 19 19 16 16
61 55 58 55 52 52 48 45 42 42 35 39 26 26 32 23 6 3 0 19 26 23 26 16 16 19 6 3 10 19 13 13 3 0 0 3 0 0 0 6 3 3 0
48 45 45 48 45 42 48 42 42 39 35 29 29 26 26 23 6 3 0 23 23 19 23 16 3 3 3 0 3 16 19 10 3 3 3 0 0 0 0 0 6 3 0
39 42 42 45 42 42 39 39 39 39 42 29 26 23 23 16 3 3 0 16 19 19 16 13 10 0 0 0 0 6 3 3 0 6 6 6 6 6 3 3 6 3 3
32 39 39 42 29 32 32 35 39 35 35 32 29 19 19 19 6 3 0 0 6 16 16 10 6 0 0 0 0 0 0 0 3 3 6 10 6 6 6 3 0 3 6
35 35 32 29 29 29 29 29 35 35 26 26 29 23 26 19 16 3 0 0 0 10 13 0 0 0 0 0 0 0 0 3 3 3 6 6 6 3 0 6 0 3 3
32 29 29 29 19 26 32 29 26 29 26 26 23 23 16 16 13 10 6 3 0 0 0 0 0 0 0 0 0 0 0 3 3 3 3 6 3 3 3 3 3 3 3
23 23 19 19 13 16 23 19 19 19 19 19 23 19 16 13 10 6 6 6 10 6 3 0 0 0 0 0 0 0 0 0 0 3 0 0 0 0 0 0 0 0 0
19 16 16 13 10 13 13 16 6 6 6 3 3 6 13 6 3 0 0 0 0 0 0 0 0 0 0 0 0 0 0 0 0 0 0 0 0 0 0 0 0 0 0
16 16 13 13 10 10 13 13 13 6 0 0 3 3 6 0 0 0 0 0 0 0 0 3 0 0 0 0 0 0 0 0 0 0 0 0 0 0 3 3 0 0 0
16 13 13 13 13 13 16 16 16 13 10 10 0 0 0 0 0 0 0 0 0 0 0 0 0 0 0 3 3 3 3 0 0 0 0 0 0 3 3 3 3 0 0
13 13 13 13 16 10 10 10 6 10 10 13 13 0 0 0 0 0 0 0 0 0 0 0 3 0 0 0 3 0 0 0 0 0 0 0 0 0 0 0 0 0 0
10 6 10 13 13 13 10 6 6 10 10 13 6 3 0 0 0 0 0 0 0 0 0 0 3 3 0 6 0 0 0 0 0 0 0 0 0 0 0 0 0 0 0
6 10 6 10 10 10 6 6 6 13 13 10 6 6 0 3 0 0 0 0 0 0 0 3 3 3 0 0 0 0 0 0 0 0 0 0 0 0 0 0 0 0 0
6 6 10 10 10 10 10 6 6 10 13 13 3 0 0 0 3 0 0 0 0 0 0 3 0 0 0 0 3 3 0 0 0 0 0 0 0 0 0 0 0 0 0
6 6 3 3 6 0 10 10 10 10 10 3 3 0 0 0 0 0 0 0 0 0 0 0 0 0 0 0 0 3 0 0 0 0 0 0 0 0 0 0 0 0 0
10 6 6 0 3 0 0 0 0 0 3 0 0 0 0 0 0 0 0 0 0 0 0 0 0 0 0 0 0 0 0 0 0 0 0 0 0 0 0 0 0 0 0
3 3 3 0 0 0 0 0 0 0 3 0 0 0 0 0 0 0 0 0 0 0 0 0 0 0 0 0 0 0 0 0 0 0 0 0 0 0 0 0 0 0 0
0 3 3 0 0 0 0 0 0 0 3 0 0 0 0 0 0 0 0 0 0 0 0 0 0 0 0 0 0 0 0 0 0 0 0 0 0 0 0 0 0 0 0

GEFSGL_con_cape1000_240.txt.gz
Probability
81 77 81 77 74 74 71 71 71 74 71 71 71 65 68 65 65 61 55 55 52 52 48 52 52 52 58 52 52 48 42 42 26 29 29 39 35 32 26 19 19 13 3
77 77 74 77 74 71 71 71 71 71 68 65 65 61 65 61 58 48 42 45 45 48 48 48 48 39 48 48 48 45 39 35 29 23 32 35 29 35 32 29 19 10 10
77 74 74 74 71 71 74 74 74 68 68 65 65 61 61 55 45 45 42 42 42 45 48 45 45 45 39 35 35 29 32 23 29 32 26 35 32 29 32 32 16 23 13
74 74 74 74 71 74 71 74 68 65 65 68 68 61 55 42 45 45 45 35 39 45 39 35 35 32 32 32 32 35 32 26 29 26 29 26 26 32 32 26 23 26 16
71 74 68 68 68 68 68 68 68 65 65 65 65 58 48 39 35 35 42 32 35 35 35 35 32 32 26 29 19 32 32 32 29 29 26 23 26 23 26 23 26 26 19
74 71 71 68 65 65 65 61 65 68 68 68 61 48 35 26 13 13 16 39 32 32 29 29 26 26 19 6 6 6 16 19 32 29 23 23 23 23 23 23 19 16 13
71 68 68 68 65 65 61 61 61 68 68 58 55 52 35 19 10 10 6 23 26 35 32 29 23 16 16 16 3 0 0 0 0 13 16 16 16 19 19 19 23 16 13
68 65 68 65 58 58 58 61 65 65 61 52 45 48 39 23 13 3 3 16 29 29 29 29 26 19 10 10 13 10 3 0 0 3 13 16 13 13 16 16 13 10 13
61 61 58 58 55 58 55 58 58 58 52 48 45 42 32 19 10 3 0 26 29 26 19 16 19 23 10 10 10 16 10 3 0 0 0 0 0 0 3 3 6 3 3
58 58 58 58 55 52 55 58 55 52 42 42 35 35 29 26 13 3 0 10 13 23 19 19 10 13 6 3 16 13 10 6 3 0 0 0 0 0 0 0 6 3 3
61 58 55 52 55 45 52 52 52 42 42 35 32 32 23 23 13 3 0 10 13 19 19 19 13 6 3 0 3 16 10 3 3 3 3 0 3 3 3 3 3 0 3
52 48 48 45 42 39 42 45 42 35 39 35 39 32 23 23 16 6 0 0 3 10 19 16 13 3 0 0 0 0 0 0 0 3 3 3 3 3 3 0 0 0 3
39 42 39 35 42 42 42 39 26 32 32 26 29 23 23 23 19 3 0 0 0 6 6 13 3 0 0 0 0 0 0 0 3 0 3 3 3 3 0 0 0 0 0
39 42 35 32 26 26 32 23 19 19 26 26 26 26 23 23 19 13 6 0 0 0 0 0 0 0 0 0 0 0 0 0 3 3 0 3 3 3 0 0 0 0 0
39 32 29 26 16 19 16 16 19 19 16 16 16 16 16 19 19 13 13 10 6 6 0 3 3 0 3 0 0 0 0 0 0 3 3 3 3 0 0 0 0 0 0
35 32 19 19 16 10 10 6 0 3 3 3 3 3 3 6 6 6 3 3 3 0 0 3 3 0 0 0 0 0 0 0 0 3 0 3 3 0 0 0 0 0 0
32 26 23 16 13 10 10 13 13 3 0 0 0 0 0 0 0 3 3 0 0 0 3 3 3 3 3 3 0 0 0 0 3 0 0 0 3 0 0 0 0 0 0
23 19 19 19 13 13 13 13 13 13 13 10 0 0 0 0 0 0 0 0 0 0 6 10 3 3 6 6 0 0 0 0 0 0 0 0 0 0 0 0 0 0 0
16 16 16 19 13 13 13 13 13 13 13 13 10 0 0 0 0 0 0 0 3 3 3 3 3 3 6 3 6 6 6 6 6 3 0 0 0 0 0 0 0 0 0
19 10 10 16 13 13 13 13 13 13 13 10 13 10 0 0 0 0 0 0 3 3 3 6 3 3 3 0 3 3 3 0 0 0 0 0 0 0 0 0 0 0 0
10 10 6 10 13 13 13 13 13 13 10 10 13 6 0 3 3 0 0 0 0 0 0 0 0 0 3 0 3 3 0 0 0 0 0 0 0 0 0 0 0 0 0
6 6 10 13 13 13 13 10 10 6 6 6 6 6 0 0 3 3 3 0 0 3 3 0 0 3 0 0 0 0 0 0 0 0 0 0 0 0 0 0 0 0 0
6 3 10 10 10 6 6 6 6 6 10 6 6 6 6 3 3 3 0 0 0 0 3 0 0 0 0 0 0 0 0 0 0 0 0 0 0 0 0 0 0 0 0
3 3 3 6 6 6 6 6 6 6 6 3 6 6 6 6 3 6 0 0 0 0 3 0 0 0 0 0 0 0 0 0 0 0 0 0 0 0 0 0 0 0 0
3 3 3 10 6 6 6 6 6 3 3 0 3 3 3 0 0 3 0 3 3 3 3 0 0 0 0 0 0 0 0 0 0 0 0 0 0 0 0 0 0 0 0
3 3 3 6 6 3 6 6 3 3 0 0 0 3 3 3 0 0 0 0 0 3 3 0 0 0 0 0 0 0 0 0 0 0 0 0 0 0 0 0 0 0 0

GEFSGL_con_cape1000_246.txt.gz
Probability
58 65 61 61 61 58 48 45 45 45 42 35 35 35 26 23 23 23 19 19 23 23 19 19 19 13 10 10 6 6 3 0 3 3 3 3 3 3 0 0 0 0 3
61 65 61 61 61 55 55 48 48 48 42 39 35 26 26 19 23 23 23 26 23 23 19 19 16 16 13 10 6 6 6 3 3 3 3 3 3 3 0 0 0 0 0
58 61 65 61 58 55 55 55 52 45 42 42 32 29 29 23 19 19 19 23 23 23 16 16 16 16 13 13 6 6 6 6 3 3 3 3 3 0 0 0 0 0 3
58 55 58 55 52 52 48 48 42 39 32 32 32 32 26 23 23 16 23 26 16 16 16 16 13 13 13 13 13 10 6 3 3 3 6 3 3 0 0 0 0 0 0
55 58 58 48 45 45 42 42 42 35 35 32 32 29 16 16 16 16 16 13 13 13 16 13 16 16 13 13 13 6 6 3 3 3 3 0 0 0 0 0 0 0 0
58 58 52 45 45 35 35 32 35 29 26 32 23 23 16 16 13 13 10 13 13 13 13 13 13 13 13 10 6 3 0 3 6 3 0 0 0 0 0 0 0 0 0
55 48 45 45 42 42 39 35 29 29 26 19 19 19 13 13 13 10 6 10 10 10 6 6 13 13 13 6 3 3 3 0 0 0 0 0 0 0 0 0 0 0 0
48 42 35 39 35 35 35 32 26 29 23 23 23 19 13 13 13 3 3 3 3 6 6 6 10 10 3 6 6 6 0 0 0 0 0 0 0 0 0 3 0 0 0
42 35 35 29 32 29 26 26 26 26 19 19 19 19 16 16 13 3 0 3 3 6 6 6 10 10 3 3 3 6 3 3 0 0 0 0 0 0 0 0 0 0 0
35 35 29 26 29 26 26 23 23 23 13 13 19 19 16 16 16 6 0 3 3 3 6 6 6 6 3 3 3 0 0 3 3 0 0 0 0 0 0 0 0 0 0
26 23 26 29 29 26 26 26 23 16 13 13 13 13 10 13 10 0 0 0 3 6 6 6 6 3 0 0 3 0 0 0 0 0 0 0 0 0 0 0 0 0 0
23 23 19 19 26 26 19 23 19 10 13 13 10 10 10 6 6 3 0 0 0 6 6 6 6 3 3 0 0 0 0 0 0 3 3 0 0 0 0 0 0 0 0
23 19 19 13 19 16 13 13 10 10 10 10 10 10 10 6 6 6 0 0 0 0 6 6 6 3 0 0 0 0 0 0 0 0 3 3 3 3 0 0 0 0 0
13 13 13 10 13 6 6 6 6 10 13 10 10 10 6 6 6 6 3 0 0 0 0 0 0 0 0 0 0 0 0 0 0 0 0 0 0 0 0 0 0 0 0
10 10 10 13 6 6 6 6 6 6 6 6 6 10 10 10 6 3 0 0 0 0 0 0 0 0 0 0 0 0 0 0 0 0 0 0 0 0 0 0 0 0 0
10 10 6 6 10 6 6 0 0 0 0 3 3 3 3 3 3 0 0 0 0 0 0 0 0 0 0 0 0 0 0 0 0 0 0 0 0 0 0 0 0 0 0
13 13 6 6 6 10 3 0 0 0 0 0 0 0 3 3 0 0 0 0 0 0 0 0 0 0 0 0 0 0 0 0 0 0 0 0 0 0 0 0 0 0 0
6 6 6 6 6 3 6 3 0 0 0 0 0 0 0 0 0 0 0 0 0 0 0 0 0 0 0 0 0 0 0 0 0 0 0 0 0 0 0 0 0 0 0
3 3 3 3 3 6 6 3 3 3 3 0 0 0 0 0 0 0 0 0 0 0 0 0 0 0 0 0 0 0 0 0 0 0 0 0 0 0 0 0 0 0 0
3 3 3 6 6 3 6 6 6 3 3 3 0 0 0 0 0 0 0 0 0 0 0 0 0 0 0 0 0 0 0 0 0 0 0 0 0 0 0 0 0 0 0
3 3 3 6 0 0 0 0 3 6 0 0 0 0 0 0 0 0 0 0 0 0 0 0 0 0 0 0 0 0 0 0 0 0 0 0 0 0 0 0 0 0 0
3 0 0 0 0 0 0 0 0 3 3 0 0 0 0 0 0 0 0 0 0 0 0 0 0 0 0 0 0 0 0 0 0 0 0 0 0 0 0 0 0 0 0
3 0 0 0 0 0 0 0 0 0 0 0 0 0 0 0 0 0 0 0 0 0 0 0 0 0 0 0 0 0 0 0 0 0 0 0 0 0 0 0 0 0 0
3 3 0 0 0 0 0 0 0 0 0 0 0 0 0 0 0 0 0 0 0 0 0 0 0 0 0 0 0 0 0 0 0 0 0 0 0 0 0 0 0 0 0
3 3 0 0 0 0 0 0 0 0 0 0 0 0 0 0 0 0 0 0 0 0 0 0 0 0 0 0 0 0 0 0 0 0 0 0 0 0 0 0 0 0 0
0 0 3 0 0 0 0 0 0 0 0 0 0 0 0 0 0 0 0 0 0 0 0 0 0 0 0 0 0 0 0 0 0 0 0 0 0 0 0 0 0 0 0

GEFSGL_con_cape1000_252.txt.gz
Probability
42 42 42 42 32 29 29 29 26 23 19 23 19 16 16 16 16 13 13 13 13 6 10 10 6 6 10 10 10 6 6 6 6 6 6 3 3 3 3 10 10 6 0
39 45 45 39 45 39 35 26 23 19 19 23 19 16 16 19 13 13 10 10 10 6 6 10 6 6 6 6 6 6 6 6 6 6 6 6 6 6 3 3 0 0 3
48 48 45 39 45 42 42 35 32 26 32 26 16 16 13 13 13 10 10 10 6 6 6 10 10 10 10 10 10 10 10 6 6 6 3 6 6 3 0 0 0 0 0
48 48 42 39 39 35 29 29 32 29 26 23 16 19 19 16 16 13 13 13 10 10 13 10 10 10 10 10 10 10 10 6 3 3 3 3 3 3 3 3 3 0 0
42 42 39 39 35 29 26 23 26 23 23 23 16 16 16 16 16 16 13 13 13 13 10 10 10 10 10 10 10 10 6 6 6 3 3 3 3 0 3 3 6 0 0
45 42 42 39 32 29 26 26 26 26 23 19 19 16 16 16 16 13 13 16 16 13 13 10 10 6 10 6 3 0 3 6 6 6 6 3 3 0 0 0 0 0 0
45 35 32 32 26 26 26 23 23 26 23 19 19 19 16 16 13 6 3 10 16 16 13 13 10 6 10 10 3 3 0 0 0 3 6 6 6 0 0 0 0 0 0
32 32 32 26 26 26 23 23 23 19 23 19 19 19 16 16 6 0 0 0 3 10 6 6 6 6 10 6 3 3 3 3 0 0 0 0 0 3 3 0 0 0 0
32 32 29 29 29 26 23 23 23 19 23 19 19 19 19 13 10 0 0 0 3 3 3 6 6 6 3 0 3 3 3 0 0 0 0 0 0 0 0 0 0 0 0
23 19 19 19 29 29 26 23 16 16 19 16 16 16 13 10 6 0 0 3 3 3 3 3 3 3 3 0 3 3 3 3 0 0 0 0 0 0 0 0 0 0 0
16 16 13 19 19 23 19 19 16 16 13 10 10 10 6 6 3 3 0 3 6 6 3 3 3 0 0 0 0 0 3 0 0 0 0 0 0 0 0 0 0 0 0
13 10 13 10 16 16 19 13 13 13 13 10 10 6 6 6 3 3 0 0 0 3 6 6 6 0 0 0 0 0 0 0 0 0 0 0 0 0 0 0 0 0 0
10 3 6 6 13 13 16 16 13 10 10 6 6 6 6 6 3 0 0 0 0 0 0 0 0 0 0 0 0 0 0 0 0 0 0 0 0 0 0 0 0 0 0
6 6 6 10 10 10 10 13 13 13 13 10 6 6 6 3 3 6 3 3 0 0 0 0 0 0 0 0 0 0 0 0 0 0 0 0 0 0 0 0 0 0 0
6 6 6 3 6 6 6 10 10 13 13 10 10 6 6 3 3 0 0 0 0 0 0 0 0 0 0 3 0 0 0 0 0 0 0 0 0 0 0 0 0 0 0
6 6 3 3 6 6 6 3 3 3 0 3 3 3 3 3 3 0 0 0 0 0 0 0 0 0 3 3 0 0 0 0 0 0 0 0 0 0 0 0 0 0 0
3 3 3 3 6 6 6 3 3 3 0 0 0 0 3 3 0 0 0 0 0 0 0 0 0 3 0 3 0 0 0 0 0 0 0 0 0 0 0 0 0 0 0
3 0 3 0 3 6 3 3 3 3 3 3 0 0 0 0 0 0 0 0 0 0 0 0 0 0 0 0 0 0 0 0 0 0 0 0 0 0 0 0 0 0 0
3 0 0 3 3 0 0 3 3 3 3 3 0 0 0 0 0 0 0 0 0 0 0 0 0 0 0 0 0 0 0 0 0 0 0 0 0 0 0 0 0 0 0
3 3 0 3 3 3 3 0 0 0 3 3 3 0 0 0 0 0 0 0 0 0 0 0 0 0 0 0 0 0 0 0 0 0 0 0 0 0 0 0 0 0 0
3 3 0 3 3 0 0 0 0 0 0 0 3 0 0 0 0 0 0 0 0 0 0 0 0 0 0 0 0 0 0 0 0 0 0 0 0 0 0 0 0 0 0
3 3 3 3 3 3 0 0 0 0 0 0 0 0 0 0 0 0 0 0 0 0 0 0 3 3 0 0 0 0 0 0 0 0 0 0 0 0 0 0 0 0 0
0 3 3 3 3 3 3 0 0 0 0 0 0 0 0 0 0 0 0 0 0 0 0 0 0 0 0 0 0 0 0 0 0 0 0 0 0 0 0 0 0 0 0
3 0 0 3 3 3 3 3 3 0 0 0 0 0 0 0 0 0 0 0 0 0 0 0 0 0 0 0 0 0 0 0 0 0 0 0 0 0 0 0 0 0 0
3 0 0 0 0 0 0 0 0 0 0 0 0 0 0 0 0 0 0 0 0 0 0 0 0 0 0 0 0 0 0 0 0 0 0 0 0 0 0 0 0 0 0
3 0 0 0 0 0 0 0 0 0 0 0 0 0 0 0 0 0 0 0 0 0 0 0 0 0 0 0 0 0 0 0 0 0 0 0 0 0 0 0 0 0 0

GEFSGL_con_cape1000_258.txt.gz
Probability
71 71 68 71 71 77 74 68 71 68 68 68 68 58 61 61 61 61 52 45 48 52 52 39 32 29 26 32 32 35 32 29 32 29 13 26 26 26 16 19 16 16 10
71 71 71 71 71 68 68 71 68 65 65 65 61 58 55 55 52 55 45 39 39 35 45 42 26 23 39 32 32 23 26 32 26 29 23 23 32 32 29 23 13 13 10
71 68 68 65 68 68 68 68 68 68 65 65 58 55 48 48 48 42 39 35 32 32 29 32 26 26 32 29 32 16 23 19 23 23 23 23 13 13 23 16 10 16 6
68 65 65 61 58 58 61 61 61 61 65 61 52 52 42 35 35 35 35 29 29 29 26 29 26 23 26 35 32 35 26 26 26 16 26 19 16 10 19 16 16 19 10
68 65 65 58 55 58 58 55 55 48 39 39 45 39 32 32 29 29 32 26 29 23 23 26 26 19 16 23 16 29 32 19 19 16 16 16 10 13 10 13 13 13 10
61 58 55 52 52 55 55 48 45 39 29 29 26 26 29 23 16 16 26 26 26 26 26 26 19 16 10 10 6 6 13 23 13 13 10 16 16 13 13 10 10 10 13
52 48 48 45 45 42 35 39 35 32 32 26 26 26 26 26 16 10 3 26 26 29 26 26 19 16 13 16 10 3 0 0 0 19 13 16 16 16 13 10 10 10 13
48 45 45 42 42 39 39 39 32 29 29 29 26 29 26 23 13 13 0 26 23 26 29 29 26 19 19 16 16 16 10 10 6 10 13 13 16 16 19 13 16 13 10
52 45 45 39 39 39 35 35 26 29 26 29 32 26 29 26 6 3 0 23 26 23 26 26 26 26 10 10 16 19 16 10 3 3 3 3 0 3 6 10 6 3 6
52 48 45 39 35 35 32 29 29 29 26 26 26 26 26 29 6 3 0 19 19 19 19 23 10 13 6 3 16 16 16 10 10 6 0 0 0 0 0 6 6 3 3
42 39 32 29 32 39 29 26 26 26 26 26 26 26 23 23 6 3 0 19 16 19 16 19 16 3 3 0 0 16 10 10 10 10 10 10 10 10 6 3 13 6 3
42 29 29 29 23 23 29 26 26 29 26 26 26 19 16 19 10 6 0 0 10 16 19 16 10 3 0 0 0 6 3 0 10 10 10 6 10 6 6 3 10 10 10
32 26 23 23 23 23 19 19 16 19 16 19 16 16 16 16 13 6 3 0 0 13 13 6 3 0 0 0 0 0 0 3 6 10 13 10 6 10 13 10 10 10 6
32 26 26 23 16 16 19 16 16 13 16 16 16 16 16 16 16 13 16 10 0 0 10 6 0 0 0 0 0 0 0 6 10 13 13 13 6 6 6 3 6 6 3
29 23 19 19 13 16 19 16 10 13 13 13 16 16 16 16 10 3 3 10 13 6 6 10 10 6 6 3 10 10 6 10 6 13 10 10 10 6 6 6 6 3 3
26 13 10 10 13 13 13 10 3 3 0 0 3 3 6 6 3 3 0 0 0 0 0 3 6 10 10 13 13 6 6 6 6 6 10 6 6 3 3 3 6 6 6
19 16 6 3 0 10 13 13 10 6 0 0 0 0 0 0 0 0 0 0 0 0 0 6 6 6 6 6 10 10 10 6 6 6 6 3 0 0 0 0 3 6 6
23 10 10 10 3 3 3 3 6 10 10 10 0 0 0 0 0 0 0 0 0 0 3 6 6 6 6 6 10 10 10 10 10 10 10 6 3 3 0 0 0 3 3
23 19 16 10 6 3 6 3 3 10 10 10 3 0 0 0 0 0 0 0 6 3 3 6 6 6 6 6 10 10 10 10 10 10 3 0 3 3 3 3 3 3 0
23 10 13 16 10 3 6 10 6 6 6 6 3 0 0 0 3 3 0 0 3 3 3 3 3 3 3 10 10 10 6 6 6 10 0 3 3 3 3 3 0 0 0
19 10 3 6 6 10 6 10 10 6 3 3 3 3 0 0 0 0 3 3 3 3 0 0 0 0 0 10 10 6 6 6 6 0 0 0 3 3 3 6 0 0 0
16 16 16 13 6 6 6 6 3 6 10 3 6 0 0 0 0 0 0 0 3 3 0 0 0 0 3 6 10 3 3 3 3 0 0 3 6 3 0 0 0 0 0
16 13 16 13 10 3 10 6 10 6 6 6 0 0 0 0 0 0 0 0 3 3 3 0 0 0 3 6 6 6 6 6 6 3 3 0 0 0 0 0 0 0 0
16 16 16 13 6 6 3 6 6 6 6 6 6 3 3 0 0 0 0 0 0 3 0 0 0 0 0 3 6 3 3 3 3 3 3 3 3 3 3 0 0 0 0
13 13 10 10 6 3 3 3 10 10 3 6 0 0 0 0 0 0 0 0 0 0 0 0 0 0 0 3 3 3 3 0 0 0 0 0 3 3 3 0 0 0 0
16 13 10 10 6 3 3 3 3 6 10 6 0 0 0 0 0 0 0 0 0 3 3 0 0 0 0 0 3 3 0 0 0 0 0 0 0 0 0 0 0 0 0

GEFSGL_con_cape1000_264.txt.gz
Probability
74 74 74 74 77 77 71 71 68 68 68 65 65 61 58 55 52 52 45 39 45 42 42 42 45 39 32 26 29 26 23 19 23 26 26 29 32 26 19 26 16 6 6
71 71 71 71 71 71 68 65 65 65 65 58 58 55 55 48 52 52 45 42 42 39 42 39 35 26 26 32 26 29 29 29 23 19 23 26 26 23 19 19 10 3 3
71 71 71 68 71 65 61 65 65 61 58 55 55 52 52 52 48 48 42 42 42 39 39 29 32 35 32 35 26 23 23 16 23 19 19 16 23 23 23 16 6 13 6
74 68 68 68 65 58 58 58 55 52 52 48 48 45 45 45 48 39 39 42 42 39 39 39 35 35 29 32 26 19 19 23 19 19 23 19 19 26 23 16 6 10 3
68 65 68 65 61 55 52 52 48 48 45 48 52 48 45 39 29 29 35 39 39 39 29 29 23 23 23 23 16 23 23 23 26 19 19 16 13 13 10 10 6 6 6
65 61 61 58 55 48 48 48 48 45 42 45 39 32 32 23 23 19 29 35 35 32 29 26 23 19 16 13 13 16 19 19 23 23 16 16 16 10 6 3 10 3 3
58 55 55 48 45 42 45 45 45 39 42 42 32 32 26 23 16 13 10 29 32 32 29 32 26 19 16 16 10 6 6 3 6 26 23 26 19 10 6 6 6 6 0
55 55 55 48 45 42 42 42 42 42 39 39 32 29 26 23 10 10 3 19 32 32 29 32 29 29 16 19 13 10 13 3 6 3 19 16 16 13 6 6 3 6 3
55 55 52 45 45 42 42 39 39 42 39 32 32 26 26 26 10 6 3 26 29 29 29 32 26 26 16 10 13 16 13 10 3 3 3 3 3 10 10 10 6 0 0
58 55 45 45 42 35 35 39 39 39 29 29 29 26 26 23 10 6 0 19 26 29 26 23 16 19 19 3 19 19 19 19 10 3 3 3 3 3 0 10 6 3 0
52 52 45 42 39 39 35 35 35 29 26 26 26 26 23 23 10 6 0 16 19 19 16 19 16 6 3 0 0 16 16 10 16 13 6 3 3 10 3 6 10 6 6
48 42 39 39 35 39 32 32 32 29 26 26 23 26 23 23 16 6 0 0 6 13 16 16 10 6 3 0 0 3 6 0 13 16 19 6 10 10 10 6 6 6 3
42 42 39 39 39 35 32 29 23 26 26 23 23 23 23 23 16 6 3 0 0 6 6 3 3 3 3 0 0 0 0 3 10 10 13 10 13 6 10 10 6 0 3
39 35 35 35 35 32 29 26 23 19 16 16 23 23 23 16 13 6 3 6 3 3 3 0 0 0 0 0 3 3 0 3 10 13 13 13 10 10 6 6 3 0 0
39 39 35 32 32 29 23 23 19 10 6 6 6 6 6 10 6 6 6 3 0 0 0 3 13 10 6 6 13 10 13 10 3 3 6 3 6 10 6 0 0 0 0
39 35 32 29 32 26 23 13 6 3 3 3 6 3 3 3 3 3 0 0 0 0 0 6 6 6 6 6 10 16 6 3 3 6 0 3 10 6 6 3 3 0 0
39 39 35 29 29 26 26 23 10 3 0 0 0 0 0 0 0 0 0 0 0 0 0 6 6 10 6 6 3 3 6 13 10 3 0 0 6 3 0 0 0 0 0
29 23 26 35 29 19 16 16 16 6 6 10 0 0 0 0 0 0 0 0 0 0 0 3 6 6 6 6 6 3 6 6 6 3 6 13 13 10 0 0 0 0 0
26 26 26 23 19 19 13 13 10 13 6 10 6 0 0 0 0 0 0 0 0 0 3 3 6 3 6 6 3 3 3 3 3 3 10 6 6 6 0 0 0 0 0
29 23 23 23 19 10 6 6 10 13 6 3 3 0 0 0 0 0 0 0 0 0 0 0 0 0 3 6 6 6 10 3 3 3 3 3 3 3 0 0 0 0 0
23 19 6 13 10 10 13 13 10 10 6 6 6 0 0 0 0 0 0 0 0 3 3 3 3 3 3 3 3 6 3 0 3 3 3 3 3 3 0 0 0 0 0
16 19 13 6 10 13 13 13 13 13 10 6 3 0 0 0 0 0 0 3 0 0 3 6 6 6 6 3 6 3 3 3 3 3 3 3 3 3 0 0 0 0 0
13 13 13 6 6 3 6 6 10 10 10 10 13 10 0 0 0 0 0 0 0 0 0 3 3 3 3 6 3 3 3 3 0 3 3 3 3 3 0 0 0 0 0
10 13 10 6 3 3 3 6 6 6 10 10 10 6 3 3 0 0 0 0 0 0 0 0 3 3 3 3 0 0 0 0 0 3 3 3 3 0 0 0 0 0 0
10 10 10 10 10 3 3 3 3 6 10 13 13 6 6 6 0 0 3 0 0 0 0 0 0 0 0 0 0 0 0 0 0 0 3 3 3 0 0 0 0 0 0
6 10 6 10 13 10 3 3 6 16 10 13 10 6 6 6 0 0 0 0 0 0 0 0 0 0 0 0 0 0 0 0 0 0 3 3 3 3 0 0 0 0 0